Pardubice, Czech Republic

11:42 PM CEST on May 22, 2017 (GMT +0200)
Pardubice

Weather History for LKPD - December, 2012

Change the Weather History Date:

Friday, December 7, 2012

  Actual Average Record
Temperature  
Mean Temperature 18 °F -  
Max Temperature 24 °F - - ()
Min Temperature 8 °F - - ()
Degree Days  
Heating Degree Days 47    
Moisture  
Dew Point 14 °F    
Average Humidity 86    
Maximum Humidity 93    
Minimum Humidity 69    
Precipitation  
Precipitation 0.00 in - - ()
Sea Level Pressure  
Sea Level Pressure 29.90 in    
Wind  
Wind Speed 3 mph ()    
Max Wind Speed 7 mph    
Max Gust Speed -    
Visibility 5.8 miles    
Events Snow    
T = Trace of Precipitation, MM = Missing Value Source: Averaged Metar Reports

Daily Weather History Graph

Daily Weather History Graph

Search for Another Location

Airport or City:

Trip Planner

Search our weather history database for the weather conditions in past years. The results will help you decide how hot, cold, wet, or windy it might be!

Date:

Astronomy

Dec. 07, 2012 Rise Set
Actual Time 7:41 AM CET 3:55 PM CET
Civil Twilight 7:03 AM CET 4:33 PM CET
Nautical Twilight 6:22 AM CET 5:14 PM CET
Astronomical Twilight 5:43 AM CET 5:53 PM CET
Moon 12:06 AM CET (12/7) 12:15 PM CET (12/7)
Length of Visible Light 9h 29m
Length of Day
8h 13m
Last Quarter, 41% of the Moon is Illuminated
Dec 7
Last Quarter
Dec 13
New
Dec 20
First Quarter
Dec 28
Full
Jan 5
Last Quarter

Hourly Weather History & Observations

Time (CET) Temp. Windchill Dew Point Humidity Pressure Visibility Wind Dir Wind Speed Gust Speed Precip Events Conditions
12:00 AM 24.8 °F 17.9 °F 15.8 °F 69% 29.98 in - West 5.8 mph - N/A   Clear
1:00 AM 23.0 °F 14.7 °F 19.4 °F 86% 29.98 in 3.1 mi West 6.9 mph - N/A Snow Light Snow
3:00 AM 17.6 °F - 15.8 °F 93% 29.95 in 6.2 mi WSW 1.2 mph - N/A Snow Light Snow
5:00 AM 14.0 °F - 12.2 °F 93% 29.95 in - ESE 2.3 mph - N/A   Clear
6:00 AM 15.8 °F - 12.2 °F 86% 29.95 in 6.2 mi East 2.3 mph - N/A   Mostly Cloudy
7:00 AM 17.6 °F - 15.8 °F 93% 29.95 in 6.2 mi Calm Calm - N/A   Mostly Cloudy
8:00 AM 17.6 °F 12.3 °F 15.8 °F 93% 29.95 in 6.2 mi ESE 3.5 mph - N/A   Mostly Cloudy
9:00 AM 15.8 °F - 14.0 °F 93% 29.92 in 6.2 mi East 2.3 mph - N/A   Scattered Clouds
10:00 AM 19.4 °F 12.8 °F 15.8 °F 86% 29.92 in 6.2 mi East 4.6 mph - N/A   Partly Cloudy
11:00 AM 21.2 °F 14.9 °F 17.6 °F 86% 29.92 in - East 4.6 mph - N/A   Clear
12:00 PM 23.0 °F 18.4 °F 17.6 °F 80% 29.89 in - ESE 3.5 mph - N/A   Clear
1:00 PM 24.8 °F 17.9 °F 17.6 °F 74% 29.86 in - ESE 5.8 mph - N/A   Clear
2:00 PM 24.8 °F 16.9 °F 19.4 °F 80% 29.86 in - ESE 6.9 mph - N/A   Clear
3:00 PM 24.8 °F 17.9 °F 17.6 °F 74% 29.83 in - East 5.8 mph - N/A   Clear
4:00 PM 19.4 °F - 14.0 °F 80% 29.83 in - East 2.3 mph - N/A   Clear
5:00 PM 17.6 °F - 14.0 °F 86% 29.83 in - Calm Calm - N/A   Clear
6:00 PM 14.0 °F 6.5 °F 12.2 °F 93% 29.83 in 6.2 mi East 4.6 mph - N/A   Scattered Clouds
7:00 PM 15.8 °F 10.2 °F 14.0 °F 93% 29.86 in - East 3.5 mph - N/A   Clear
8:00 PM 12.2 °F - 8.6 °F 85% 29.86 in - Variable 2.3 mph - N/A   Clear
9:00 PM 14.0 °F - 12.2 °F 93% 29.89 in - SE 2.3 mph - N/A   Clear
10:00 PM 12.2 °F - 10.4 °F 92% 29.89 in - East 2.3 mph - N/A   Clear
11:00 PM 8.6 °F - 6.8 °F 92% 29.89 in - Calm Calm - N/A   Clear